Time,TemperatureF,DewpointF,PressureIn,WindDirection,WindDirectionDegrees,WindSpeedMPH,WindSpeedGustMPH,Humidity,HourlyPrecipIn,Conditions,Clouds,dailyrainin,SolarRadiationWatts/m^2,SoftwareType,DateUTC
2013-02-17 00:01:00,47.0,25.0,-100.00,ESE,110,3.0,9.0,42,0.00,,,0.00,0.000000,,2013-02-17 08:01:00,
2013-02-17 00:11:00,44.0,26.0,-100.00,West,260,2.0,9.0,49,0.00,,,0.00,0.000000,,2013-02-17 08:11:00,
2013-02-17 00:42:00,44.0,26.0,-100.00,West,260,2.0,9.0,49,0.00,,,0.00,0.000000,,2013-02-17 08:42:00,
2013-02-17 00:52:00,44.0,26.0,-100.00,West,260,2.0,9.0,49,0.00,,,0.00,0.000000,,2013-02-17 08:52:00,
2013-02-17 01:01:00,44.0,26.0,-100.00,West,260,2.0,9.0,49,0.00,,,0.00,0.000000,,2013-02-17 09:01:00,
2013-02-17 01:11:00,46.0,26.0,-100.00,ENE,76,3.0,8.0,45,0.00,,,0.00,0.000000,,2013-02-17 09:11:00,
2013-02-17 01:42:00,46.0,26.0,-100.00,ENE,76,3.0,8.0,45,0.00,,,0.00,0.000000,,2013-02-17 09:42:00,
2013-02-17 01:52:00,46.0,26.0,-100.00,ENE,76,3.0,8.0,45,0.00,,,0.00,0.000000,,2013-02-17 09:52:00,
2013-02-17 02:01:00,46.0,26.0,-100.00,ENE,76,3.0,8.0,45,0.00,,,0.00,0.000000,,2013-02-17 10:01:00,
2013-02-17 02:11:00,47.0,30.0,-100.00,ENE,75,4.0,8.0,51,0.00,,,0.00,0.000000,,2013-02-17 10:11:00,
2013-02-17 02:42:00,47.0,30.0,-100.00,ENE,75,4.0,8.0,51,0.00,,,0.00,0.000000,,2013-02-17 10:42:00,
2013-02-17 02:52:00,47.0,30.0,-100.00,ENE,75,4.0,8.0,51,0.00,,,0.00,0.000000,,2013-02-17 10:52:00,
2013-02-17 03:01:00,47.0,30.0,-100.00,ENE,75,4.0,8.0,51,0.00,,,0.00,0.000000,,2013-02-17 11:01:00,
2013-02-17 03:11:00,46.0,30.0,-100.00,East,89,1.0,9.0,54,0.00,,,0.00,0.000000,,2013-02-17 11:11:00,
2013-02-17 03:42:00,46.0,30.0,-100.00,East,89,1.0,9.0,54,0.00,,,0.00,0.000000,,2013-02-17 11:42:00,
2013-02-17 03:52:00,46.0,30.0,-100.00,East,89,1.0,9.0,54,0.00,,,0.00,0.000000,,2013-02-17 11:52:00,
2013-02-17 04:02:00,46.0,30.0,-100.00,East,89,1.0,9.0,54,0.00,,,0.00,0.000000,,2013-02-17 12:02:00,
2013-02-17 04:11:00,44.0,30.0,-100.00,ESE,106,2.0,3.0,57,0.00,,,0.00,0.000000,,2013-02-17 12:11:00,
2013-02-17 04:32:00,44.0,30.0,-100.00,ESE,106,2.0,3.0,57,0.00,,,0.00,0.000000,,2013-02-17 12:32:00,
2013-02-17 04:42:00,44.0,30.0,-100.00,ESE,106,2.0,3.0,57,0.00,,,0.00,0.000000,,2013-02-17 12:42:00,
2013-02-17 04:52:00,44.0,30.0,-100.00,ESE,106,2.0,3.0,57,0.00,,,0.00,0.000000,,2013-02-17 12:52:00,
2013-02-17 05:02:00,44.0,30.0,-100.00,ESE,106,2.0,3.0,57,0.00,,,0.00,0.000000,,2013-02-17 13:02:00,
2013-02-17 06:11:00,42.0,28.0,-100.00,ESE,113,2.0,3.0,58,-99.99,,,0.00,0.000000,,2013-02-17 14:11:00,
2013-02-17 06:42:00,42.0,28.0,-100.00,ESE,113,2.0,3.0,58,-99.99,,,0.00,0.000000,,2013-02-17 14:42:00,
2013-02-17 06:53:00,42.0,28.0,-100.00,ESE,113,2.0,3.0,58,-99.99,,,0.00,0.000000,,2013-02-17 14:53:00,
2013-02-17 07:01:00,42.0,28.0,-100.00,ESE,113,2.0,3.0,58,-99.99,,,0.00,0.000000,,2013-02-17 15:01:00,
2013-02-17 07:11:00,41.0,29.0,-100.00,WSW,257,1.0,6.0,62,0.00,,,0.00,3.000000,,2013-02-17 15:11:00,
2013-02-17 07:42:00,41.0,29.0,-100.00,WSW,257,1.0,6.0,62,0.00,,,0.00,3.000000,,2013-02-17 15:42:00,
2013-02-17 07:52:00,41.0,29.0,-100.00,WSW,257,1.0,6.0,62,0.00,,,0.00,3.000000,,2013-02-17 15:52:00,
2013-02-17 08:01:00,41.0,29.0,-100.00,WSW,257,1.0,6.0,62,0.00,,,0.00,3.000000,,2013-02-17 16:01:00,
2013-02-17 08:11:00,48.0,32.0,-100.00,East,92,1.0,5.0,54,0.00,,,0.00,101.000000,,2013-02-17 16:11:00,
2013-02-17 08:32:00,48.0,32.0,-100.00,East,92,1.0,5.0,54,0.00,,,0.00,101.000000,,2013-02-17 16:32:00,
2013-02-17 08:42:00,48.0,32.0,-100.00,East,92,1.0,5.0,54,0.00,,,0.00,101.000000,,2013-02-17 16:42:00,
2013-02-17 08:52:00,48.0,32.0,-100.00,East,92,1.0,5.0,54,0.00,,,0.00,101.000000,,2013-02-17 16:52:00,
2013-02-17 09:02:00,48.0,32.0,-100.00,East,92,1.0,5.0,54,0.00,,,0.00,101.000000,,2013-02-17 17:02:00,
2013-02-17 09:11:00,47.0,33.0,-100.00,WNW,298,7.0,8.0,59,0.00,,,0.00,309.000000,,2013-02-17 17:11:00,
2013-02-17 09:32:00,47.0,33.0,-100.00,WNW,298,7.0,8.0,59,0.00,,,0.00,309.000000,,2013-02-17 17:32:00,
2013-02-17 09:42:00,47.0,33.0,-100.00,WNW,298,7.0,8.0,59,0.00,,,0.00,309.000000,,2013-02-17 17:42:00,
2013-02-17 09:52:00,47.0,33.0,-100.00,WNW,298,7.0,8.0,59,0.00,,,0.00,309.000000,,2013-02-17 17:52:00,
2013-02-17 10:01:00,47.0,33.0,-100.00,WNW,298,7.0,8.0,59,0.00,,,0.00,309.000000,,2013-02-17 18:01:00,
2013-02-17 10:11:00,50.0,38.0,-100.00,West,278,5.0,11.0,62,0.00,,,0.00,476.000000,,2013-02-17 18:11:00,
2013-02-17 10:42:00,50.0,38.0,-100.00,West,278,5.0,11.0,62,0.00,,,0.00,476.000000,,2013-02-17 18:42:00,
2013-02-17 10:52:00,50.0,38.0,-100.00,West,278,5.0,11.0,62,0.00,,,0.00,476.000000,,2013-02-17 18:52:00,
2013-02-17 11:01:00,50.0,38.0,-100.00,West,278,5.0,11.0,62,0.00,,,0.00,476.000000,,2013-02-17 19:01:00,
2013-02-17 11:11:00,56.0,36.0,-100.00,WNW,282,7.0,11.0,47,0.00,,,0.00,601.000000,,2013-02-17 19:11:00,
2013-02-17 11:42:00,56.0,36.0,-100.00,WNW,282,7.0,11.0,47,0.00,,,0.00,601.000000,,2013-02-17 19:42:00,
2013-02-17 11:52:00,56.0,36.0,-100.00,WNW,282,7.0,11.0,47,0.00,,,0.00,601.000000,,2013-02-17 19:52:00,
2013-02-17 12:01:00,56.0,36.0,-100.00,WNW,282,7.0,11.0,47,0.00,,,0.00,601.000000,,2013-02-17 20:01:00,
2013-02-17 12:11:00,59.0,37.0,-100.00,WNW,300,8.0,11.0,43,0.00,,,0.00,673.000000,,2013-02-17 20:11:00,
2013-02-17 12:42:00,59.0,37.0,-100.00,WNW,300,8.0,11.0,43,0.00,,,0.00,673.000000,,2013-02-17 20:42:00,
2013-02-17 12:52:00,59.0,37.0,-100.00,WNW,300,8.0,11.0,43,0.00,,,0.00,673.000000,,2013-02-17 20:52:00,
2013-02-17 13:01:00,59.0,37.0,-100.00,WNW,300,8.0,11.0,43,0.00,,,0.00,673.000000,,2013-02-17 21:01:00,
2013-02-17 13:11:00,59.0,34.0,-100.00,West,281,9.0,14.0,39,0.00,,,0.00,686.000000,,2013-02-17 21:11:00,
2013-02-17 13:42:00,59.0,34.0,-100.00,West,281,9.0,14.0,39,0.00,,,0.00,686.000000,,2013-02-17 21:42:00,
2013-02-17 13:53:00,59.0,34.0,-100.00,West,281,9.0,14.0,39,0.00,,,0.00,686.000000,,2013-02-17 21:53:00,
2013-02-17 14:01:00,59.0,34.0,-100.00,West,281,9.0,14.0,39,0.00,,,0.00,686.000000,,2013-02-17 22:01:00,
2013-02-17 14:32:00,61.0,31.0,-100.00,NW,305,10.0,13.0,32,0.00,,,0.00,639.000000,,2013-02-17 22:32:00,
2013-02-17 14:42:00,61.0,31.0,-100.00,NW,305,10.0,13.0,32,0.00,,,0.00,639.000000,,2013-02-17 22:42:00,
2013-02-17 14:52:00,61.0,31.0,-100.00,NW,305,10.0,13.0,32,0.00,,,0.00,639.000000,,2013-02-17 22:52:00,
2013-02-17 15:01:00,61.0,31.0,-100.00,NW,305,10.0,13.0,32,0.00,,,0.00,639.000000,,2013-02-17 23:01:00,
2013-02-17 15:11:00,59.0,37.0,-100.00,WNW,301,10.0,13.0,44,0.00,,,-99.99,528.000000,,2013-02-17 23:11:00,
2013-02-17 15:42:00,59.0,37.0,-100.00,WNW,301,10.0,13.0,44,0.00,,,-99.99,528.000000,,2013-02-17 23:42:00,
2013-02-17 15:52:00,59.0,37.0,-100.00,WNW,301,10.0,13.0,44,0.00,,,-99.99,528.000000,,2013-02-17 23:52:00,
2013-02-17 16:01:00,59.0,37.0,-100.00,WNW,301,10.0,13.0,44,0.00,,,-99.99,528.000000,,2013-02-18 00:01:00,
2013-02-17 16:11:00,58.0,37.0,-100.00,NW,306,8.0,13.0,46,0.00,,,0.00,340.000000,,2013-02-18 00:11:00,
2013-02-17 16:42:00,58.0,37.0,-100.00,NW,306,8.0,13.0,46,0.00,,,0.00,340.000000,,2013-02-18 00:42:00,
2013-02-17 16:52:00,58.0,37.0,-100.00,NW,306,8.0,13.0,46,0.00,,,0.00,340.000000,,2013-02-18 00:52:00,
2013-02-17 17:01:00,58.0,37.0,-100.00,NW,306,8.0,13.0,46,0.00,,,0.00,340.000000,,2013-02-18 01:01:00,
2013-02-17 18:42:00,45.0,38.0,-100.00,NW,304,3.0,7.0,77,-99.99,,,0.00,26.000000,,2013-02-18 02:42:00,
2013-02-17 18:52:00,45.0,38.0,-100.00,NW,304,3.0,7.0,77,-99.99,,,0.00,26.000000,,2013-02-18 02:52:00,
2013-02-17 19:01:00,45.0,38.0,-100.00,NW,304,3.0,7.0,77,-99.99,,,0.00,26.000000,,2013-02-18 03:01:00,
2013-02-17 19:11:00,42.0,35.0,-100.00,ESE,118,2.0,5.0,77,0.00,,,0.00,0.000000,,2013-02-18 03:11:00,
2013-02-17 19:32:00,42.0,35.0,-100.00,ESE,118,2.0,5.0,77,0.00,,,0.00,0.000000,,2013-02-18 03:32:00,
2013-02-17 19:42:00,42.0,35.0,-100.00,ESE,118,2.0,5.0,77,0.00,,,0.00,0.000000,,2013-02-18 03:42:00,
2013-02-17 19:52:00,42.0,35.0,-100.00,ESE,118,2.0,5.0,77,0.00,,,0.00,0.000000,,2013-02-18 03:52:00,
2013-02-17 20:01:00,42.0,35.0,-100.00,ESE,118,2.0,5.0,77,0.00,,,0.00,0.000000,,2013-02-18 04:01:00,
2013-02-17 20:11:00,41.0,34.0,-100.00,East,99,2.0,3.0,76,0.00,,,0.00,0.000000,,2013-02-18 04:11:00,
2013-02-17 20:42:00,41.0,34.0,-100.00,East,99,2.0,3.0,76,0.00,,,0.00,0.000000,,2013-02-18 04:42:00,
2013-02-17 20:52:00,41.0,34.0,-100.00,East,99,2.0,3.0,76,0.00,,,0.00,0.000000,,2013-02-18 04:52:00,
2013-02-17 21:01:00,41.0,34.0,-100.00,East,99,2.0,3.0,76,0.00,,,0.00,0.000000,,2013-02-18 05:01:00,
2013-02-17 21:11:00,40.0,32.0,-100.00,ESE,123,4.0,5.0,74,0.00,,,0.00,0.000000,,2013-02-18 05:11:00,
2013-02-17 21:32:00,40.0,32.0,-100.00,ESE,123,4.0,5.0,74,0.00,,,0.00,0.000000,,2013-02-18 05:32:00,
2013-02-17 21:42:00,40.0,32.0,-100.00,ESE,123,4.0,5.0,74,0.00,,,0.00,0.000000,,2013-02-18 05:42:00,
2013-02-17 21:52:00,40.0,32.0,-100.00,ESE,123,4.0,5.0,74,0.00,,,0.00,0.000000,,2013-02-18 05:52:00,
2013-02-17 22:02:00,40.0,32.0,-100.00,ESE,123,4.0,5.0,74,0.00,,,0.00,0.000000,,2013-02-18 06:02:00,
2013-02-17 22:11:00,39.0,29.0,-100.00,East,98,5.0,7.0,67,0.00,,,0.00,0.000000,,2013-02-18 06:11:00,
2013-02-17 22:42:00,39.0,29.0,-100.00,East,98,5.0,7.0,67,0.00,,,0.00,0.000000,,2013-02-18 06:42:00,
2013-02-17 22:52:00,39.0,29.0,-100.00,East,98,5.0,7.0,67,0.00,,,0.00,0.000000,,2013-02-18 06:52:00,
2013-02-17 23:01:00,39.0,29.0,-100.00,East,98,5.0,7.0,67,0.00,,,0.00,0.000000,,2013-02-18 07:01:00,
2013-02-17 23:11:00,37.0,29.0,-100.00,ENE,73,1.0,6.0,74,0.00,,,0.00,0.000000,,2013-02-18 07:11:00,
2013-02-17 23:42:00,37.0,29.0,-100.00,ENE,73,1.0,6.0,74,0.00,,,0.00,0.000000,,2013-02-18 07:42:00,
2013-02-17 23:52:00,37.0,29.0,-100.00,ENE,73,1.0,6.0,74,0.00,,,0.00,0.000000,,2013-02-18 07:52:00,